Time,TemperatureF,DewpointF,PressureIn,WindDirection,WindDirectionDegrees,WindSpeedMPH,WindSpeedGustMPH,Humidity,HourlyPrecipIn,Conditions,Clouds,dailyrainin,SoftwareType,DateUTC
2013-04-27 00:03:00,36.0,32.8,30.39,SSE,163,0.0,1.0,88,0.00,,---,0.00,VWS V13.01,2013-04-27 04:03:00,
2013-04-27 01:03:00,34.7,31.8,30.39,SSE,163,0.0,0.0,89,0.00,,---,0.00,VWS V13.01,2013-04-27 05:03:00,
2013-04-27 02:03:00,34.6,32.0,30.38,SSE,163,0.0,0.0,90,0.00,,---,0.00,VWS V13.01,2013-04-27 06:03:00,
2013-04-27 03:03:00,33.1,30.5,30.38,SSE,163,0.0,1.0,90,0.00,,---,0.00,VWS V13.01,2013-04-27 07:03:00,
2013-04-27 04:03:00,34.1,31.8,30.37,SSE,163,0.0,0.0,91,0.00,,---,0.00,VWS V13.01,2013-04-27 08:03:00,
2013-04-27 05:03:00,33.5,31.2,30.36,SSE,163,0.0,0.0,91,0.00,,---,0.00,VWS V13.01,2013-04-27 09:03:00,
2013-04-27 06:03:00,32.1,30.0,30.37,SSE,163,0.0,1.0,92,0.00,,---,0.00,VWS V13.01,2013-04-27 10:03:00,
2013-04-27 07:03:00,38.2,36.1,30.38,SSE,163,0.0,1.0,92,0.00,,---,0.00,VWS V13.01,2013-04-27 11:03:00,
2013-04-27 08:03:00,46.0,38.5,30.39,NW,314,0.0,5.0,75,0.00,,---,0.00,VWS V13.01,2013-04-27 12:03:00,
2013-04-27 09:03:00,50.6,38.1,30.38,WNW,300,0.0,5.0,62,0.00,,---,0.00,VWS V13.01,2013-04-27 13:03:00,
2013-04-27 10:03:00,55.5,38.7,30.38,ENE,57,0.0,9.0,53,0.00,,---,0.00,VWS V13.01,2013-04-27 14:03:00,
2013-04-27 11:03:00,57.5,37.5,30.38,NNE,23,1.0,7.0,47,0.00,,---,0.00,VWS V13.01,2013-04-27 15:03:00,
2013-04-27 12:03:00,60.9,37.7,30.36,SW,225,0.0,5.0,42,0.00,,---,0.00,VWS V13.01,2013-04-27 16:03:00,
2013-04-27 13:03:00,57.1,40.6,30.34,ENE,66,4.0,13.0,54,0.00,,---,0.00,VWS V13.01,2013-04-27 17:03:00,
2013-04-27 14:03:00,57.0,41.0,30.33,East,96,5.0,12.0,55,0.00,,---,0.00,VWS V13.01,2013-04-27 18:03:00,
2013-04-27 15:03:00,56.5,41.5,30.32,East,83,5.0,11.0,57,0.00,,---,0.00,VWS V13.01,2013-04-27 19:03:00,
2013-04-27 16:03:00,55.0,40.1,30.30,East,90,9.0,13.0,57,0.00,,---,0.00,VWS V13.01,2013-04-27 20:03:00,
2013-04-27 17:03:00,54.5,39.1,30.29,SE,146,1.0,14.0,56,0.00,,---,0.00,VWS V13.01,2013-04-27 21:03:00,
2013-04-27 18:03:00,52.4,36.7,30.29,SSE,167,3.0,9.0,55,0.00,,---,0.00,VWS V13.01,2013-04-27 22:03:00,
2013-04-27 19:03:00,49.2,39.1,30.29,South,175,0.0,6.0,68,0.00,,---,0.00,VWS V13.01,2013-04-27 23:03:00,
2013-04-27 20:03:00,46.4,38.9,30.29,SE,136,1.0,4.0,75,0.00,,---,0.00,VWS V13.01,2013-04-28 00:03:00,
2013-04-27 21:03:00,43.8,39.0,30.30,SSE,161,0.0,3.0,83,0.00,,---,0.00,VWS V13.01,2013-04-28 01:03:00,
2013-04-27 22:03:00,41.4,37.5,30.31,SSE,161,0.0,1.0,86,0.00,,---,0.00,VWS V13.01,2013-04-28 02:03:00,
2013-04-27 23:03:00,38.9,35.9,30.31,SSE,160,0.0,0.0,89,0.00,,---,0.00,VWS V13.01,2013-04-28 03:03:00,